This is the latest recevied weather packets stored in our database for station/object K3JSE-2. If no packets are shown the sender has not sent any weather packets the latest 10 day(s).
| Time | Temp. | Humidity | Pressure | Rain* | Wind** | Luminosity | Snow |
|---|---|---|---|---|---|---|---|
| 1777818953 | 9.44° C | 48% | 1015.5 hPa | 0 mm | - | - | - |
| 1777818850 | 9.44° C | 48% | 1015.5 hPa | 0 mm | - | - | - |
| 1777818681 | 9.44° C | 49% | 1015.5 hPa | 0 mm | - | - | - |
| 1777818393 | 9.44° C | 50% | 1015.5 hPa | 0 mm | - | - | - |
| 1777818185 | 9.44° C | 49% | 1015.4 hPa | 0 mm | - | - | - |
| 1777818149 | 9.44° C | 49% | 1015.4 hPa | 0 mm | - | - | - |
| 1777817889 | 8.89° C | 53% | 1015.3 hPa | 0 mm | - | - | - |
| 1777817638 | 9.44° C | 53% | 1015.4 hPa | 0 mm | - | - | - |
| 1777817539 | 8.89° C | 52% | 1015.4 hPa | 0 mm | - | - | - |
| 1777817350 | 8.89° C | 50% | 1015.4 hPa | 0 mm | - | - | - |
| 1777817053 | 8.33° C | 53% | 1015.4 hPa | 0 mm | - | - | - |
| 1777816793 | 8.33° C | 53% | 1015.5 hPa | 0 mm | - | - | - |
| 1777816785 | 8.33° C | 53% | 1015.5 hPa | 0 mm | - | - | - |
| 1777816548 | 8.33° C | 55% | 1015.4 hPa | 0 mm | - | - | - |
| 1777816301 | 7.78° C | 53% | 1015.5 hPa | 0 mm | - | - | - |
| 1777816010 | 7.78° C | 61% | 1015.5 hPa | 0 mm | - | - | - |
| 1777816003 | 7.78° C | 61% | 1015.5 hPa | 0 mm | - | - | - |
| 1777815708 | 6.67° C | 56% | 1015.5 hPa | 0 mm | - | - | - |
| 1777815413 | 6.67° C | 57% | 1015.5 hPa | 0 mm | - | - | - |
| 1777815255 | 6.67° C | 54% | 1015.5 hPa | 0 mm | - | - | - |
| 1777815138 | 7.22° C | 53% | 1015.4 hPa | 0 mm | - | - | - |
| 1777814868 | 7.22° C | 55% | 1015.3 hPa | 0 mm | - | - | - |
| 1777814573 | 7.78° C | 54% | 1015.3 hPa | 0 mm | - | - | - |
| 1777814301 | 7.22° C | 56% | 1015.3 hPa | 0 mm | - | - | - |
| 1777814041 | 7.78° C | 56% | 1015.3 hPa | 0 mm | - | - | - |
* Rain latest hour (hover to see other rain measurements)
** Current wind speed in m/s (hover to see current wind gust speed)